Regional Weather Roundup
Issued by NWS

Home | Current Version | Previous Version | Graphics & Text | Print | Product List | Glossary Off
Versions: 1 2 3 4 5 6 7 8 9 10 11 12 13 14 15 16 17 18 19 20 21 22 23 24 25 26 27 28 29 30 31 32 33 34 35 36 37 38 39 40 41 42 43 44 45 46 47 48 49 50

817
ASUS43 KDMX 241001
RWRIA

WEATHER ROUNDUP FOR IOWA
NATIONAL WEATHER SERVICE DES MOINES IA
400 AM CST TUE JAN 24 2017

NOTE: "FAIR" INDICATES FEW OR NO CLOUDS BELOW 12,000 FEET WITH NO
SIGNIFICANT WEATHER AND/OR OBSTRUCTIONS TO VISIBILITY.

* - THESE STATIONS ARE NOT NWS STATIONS...THUS NOT UNDER NWS
QUALITY CONTROL.  THEY ALSO DO NOT REPORT WEATHER SUCH
AS PRECIPITATION OR FOG.

IAZ001>003-012>014-020>022-031>034-043>046-241100-
   NORTHWEST IOWA

CITY           SKY/WX    TMP DP  RH WIND       PRES   REMARKS
CARROLL *      CLOUDY    32  32 100 SE8       29.83S WCI  25
CHEROKEE *     CLOUDY    32  30  94 SE6       29.82F WCI  26
DENISON *      CLOUDY    30  28  93 E12       29.80S WCI  21
LE MARS *      CLOUDY    32  30  93 SE8       29.81F WCI  25
ORANGE CITY *  CLOUDY    30  28  93 SE6       29.80S WCI  24
SHELDON *      CLOUDY    30  30 100 SE10      29.80S WCI  21
SIOUX CITY     CLOUDY    32  29  88 SE13      29.80F WCI  22
SPENCER        CLOUDY    32  29  88 SE6       29.83S WCI  26
STORM LAKE *   CLOUDY    30  28  93 SE9       29.81F WCI  22
$$

IAZ055>058-069>071-079>083-090>094-241100-
   SOUTHWEST IOWA

CITY           SKY/WX    TMP DP  RH WIND       PRES   REMARKS
ATLANTIC *     CLOUDY    30  30 100 E8        29.83R WCI  23
AUDUBON *      CLOUDY    30  27  86 SE12      29.83S WCI  21
CLARINDA *     CLOUDY    30  30 100 E9        29.83S FOG     WCI  22
COUNCIL BLFS * CLOUDY    30  30 100 E10       29.78F FOG     WCI  21
CRESTON *      CLOUDY    28  28 100 E12       29.84S FOG     WCI  18
HARLAN  *      CLOUDY    30  30 100 SE13      29.85S WCI  20
LAMONI         CLOUDY    30  28  92 E7        29.83F WCI  23
RED OAK *      CLOUDY    30  30 100 E10       29.81F FOG     WCI  21
SHENANDOAH *   CLOUDY    30  30 100 E14       29.80F FOG     WCI  20
$$

IAZ047>049-059>061-072>074-084-241100-
   CENTRAL IOWA

CITY           SKY/WX    TMP DP  RH WIND       PRES   REMARKS
AMES           CLOUDY    32  31  96 SE3       29.85F
ANKENY *       CLOUDY    32  28  86 E6        29.87F WCI  26
BOONE *        CLOUDY    32  32 100 E3        29.83F
CHARITON *     CLOUDY    30  30 100 E6        29.86S FOG     WCI  24
DES MOINES     CLOUDY    32  28  85 S6        29.86F WCI  26
GRINNELL*      CLOUDY    32  30  92 CALM      29.86F
KNOXVILLE *    CLOUDY    32  28  86 S6        29.86R WCI  26
MARSHALLTOWN   CLOUDY    32  29  88 CALM      29.86R
NEWTON *       CLOUDY    32  28  86 CALM      29.86S
PELLA *        CLOUDY    32  29  89 SE3       29.89S
PERRY *        CLOUDY    32  30  93 SE6       29.84F WCI  26
$$

IAZ004>006-015-016-023>025-035-036-241100-
   NORTH CENTRAL IOWA

CITY           SKY/WX    TMP DP  RH WIND       PRES   REMARKS
ALGONA *       CLOUDY    32  32 100 E3        29.85R
CLARION *      CLOUDY    32  32 100 E3        29.85S
ESTHERVILLE    CLOUDY    30  30 100 SE3       29.84R
FORT DODGE *   CLOUDY    30  27  86 E5        29.86R WCI  25
MASON CITY     CLOUDY    31  27  85 CALM      29.87R
FOREST CITY *  CLOUDY    32  30  93 CALM      29.86S
WEBSTER CITY * CLOUDY    32 N/A N/A E6        29.84R WCI  26
IOWA FALLS *   CLOUDY    33  30  89 CALM      29.86S
$$

IAZ007>011-017>019-026>030-037>042-050>054-066-241100-
   NORTHEAST IOWA

CITY           SKY/WX    TMP DP  RH WIND       PRES   REMARKS
CEDAR RAPIDS   CLOUDY    31  28  89 SW3       29.86S
CHARLES CITY * CLOUDY    32  32 100 N3        29.86F
CLINTON *      CLOUDY    33  31  92 CALM      29.87S
DECORAH *      CLOUDY    32  30  93 CALM      29.85R
DUBUQUE        CLOUDY    33  30  88 NW5       29.85S WCI  29
MONTICELLO *   CLOUDY    32  30  93 CALM      29.86S
OELWEIN *      CLOUDY    32  30  93 CALM      29.86R
WATERLOO       CLOUDY    32  29  88 N3        29.86S
$$

IAZ064-065-067-068-078-241100-
   EAST CENTRAL IOWA

CITY           SKY/WX    TMP DP  RH WIND       PRES   REMARKS
DAVENPORT      CLOUDY    32  30  92 W3        29.87S
IOWA CITY      CLOUDY    34  28  79 CALM      29.90R
MUSCATINE *    CLOUDY    34  30  86 CALM      29.89S
QUAD CITIES    CLOUDY    34  30  85 CALM      29.87R
$$

IAZ062-063-075>077-085>089-095>099-241100-
   SOUTHEAST IOWA

CITY           SKY/WX    TMP DP  RH WIND       PRES   REMARKS
BURLINGTON     CLOUDY    33  30  88 CALM      29.88S
FAIRFIELD *    CLOUDY    32  28  86 CALM      29.88S
FORT MADISON * CLOUDY    32  30  93 CALM      29.90R
KEOKUK *       CLOUDY    34 N/A N/A CALM      29.89R
OSKALOOSA *    CLOUDY    31  28  90 CALM      29.88S
CENTERVILLE *  CLOUDY    30  30 100 CALM      29.88S
OTTUMWA        CLOUDY    32  27  81 CALM      29.87F
WASHINGTON *   CLOUDY    32  30  93 CALM      29.90S
$$

ABBREVIATIONS USED IN REMARKS
   TC - TEMPERATURES IN CELSIUS
  WCI - WIND CHILL INDEX
   HX - HEAT INDEX
  VSB - VISIBILITY
$$





USA.gov is the U.S. government's official web portal to all federal, state and local government web resources and services.